TimeEDT,TemperatureF,Dew PointF,Humidity,Sea Level PressureIn,VisibilityMPH,Wind Direction,Wind SpeedMPH,Gust SpeedMPH,PrecipitationIn,Events,Conditions,WindDirDegrees,DateUTC
12:15 AM,35.6,30.2,81,29.86,10.0,West,26.5,35.7,N/A,,Clear,280,2013-04-20 04:15:00
12:35 AM,35.6,32.0,87,29.86,10.0,WNW,23.0,32.2,N/A,,Scattered Clouds,290,2013-04-20 04:35:00
12:55 AM,35.6,33.8,93,29.86,10.0,West,23.0,32.2,N/A,,Mostly Cloudy,280,2013-04-20 04:55:00
1:15 AM,35.6,33.8,93,29.87,10.0,WNW,17.3,32.2,N/A,,Overcast,290,2013-04-20 05:15:00
1:35 AM,35.6,30.2,81,29.87,10.0,WNW,25.3,33.4,N/A,,Overcast,290,2013-04-20 05:35:00
1:55 AM,33.8,30.2,87,29.88,10.0,WNW,23.0,36.8,N/A,,Overcast,290,2013-04-20 05:55:00
2:35 AM,33.8,28.4,81,29.86,10.0,WNW,25.3,35.7,N/A,,Overcast,290,2013-04-20 06:35:00
2:55 AM,33.8,26.6,75,29.87,10.0,West,32.2,40.3,N/A,,Overcast,280,2013-04-20 06:55:00
3:15 AM,33.8,26.6,75,29.87,10.0,WNW,26.5,40.3,N/A,,Overcast,290,2013-04-20 07:15:00
3:35 AM,33.8,26.6,75,29.88,10.0,WNW,24.2,38.0,N/A,,Overcast,290,2013-04-20 07:35:00
3:55 AM,32.0,26.6,80,29.89,10.0,WNW,21.9,36.8,N/A,,Overcast,290,2013-04-20 07:55:00
4:15 AM,30.2,24.8,80,29.89,10.0,West,25.3,38.0,N/A,,Mostly Cloudy,280,2013-04-20 08:15:00
4:35 AM,30.2,24.8,80,29.88,10.0,WNW,28.8,40.3,N/A,,Scattered Clouds,290,2013-04-20 08:35:00
5:15 AM,30.2,21.2,69,29.91,10.0,WNW,16.1,29.9,N/A,,Scattered Clouds,290,2013-04-20 09:15:00
5:35 AM,28.4,21.2,74,29.92,10.0,WNW,12.7,27.6,N/A,,Scattered Clouds,290,2013-04-20 09:35:00
5:55 AM,28.4,21.2,74,29.92,10.0,WNW,24.2,33.4,N/A,,Scattered Clouds,290,2013-04-20 09:55:00
6:15 AM,28.4,21.2,74,29.93,10.0,WNW,18.4,29.9,N/A,,Clear,290,2013-04-20 10:15:00
6:35 AM,28.4,21.2,74,29.95,10.0,WNW,18.4,33.4,N/A,,Scattered Clouds,290,2013-04-20 10:35:00
6:55 AM,28.4,23.0,80,29.95,10.0,WNW,18.4,28.8,N/A,,Scattered Clouds,290,2013-04-20 10:55:00
7:15 AM,28.4,23.0,80,29.96,10.0,WNW,18.4,27.6,N/A,,Mostly Cloudy,290,2013-04-20 11:15:00
7:35 AM,28.4,23.0,80,29.97,10.0,WNW,24.2,31.1,N/A,,Mostly Cloudy,290,2013-04-20 11:35:00
7:55 AM,30.2,24.8,80,29.97,10.0,West,23.0,31.1,N/A,,Mostly Cloudy,280,2013-04-20 11:55:00
8:15 AM,30.2,24.8,80,29.99,10.0,WNW,21.9,33.4,N/A,,Mostly Cloudy,290,2013-04-20 12:15:00
8:35 AM,30.2,24.8,80,29.99,10.0,West,19.6,29.9,N/A,,Overcast,280,2013-04-20 12:35:00
8:55 AM,30.2,23.0,75,30.00,10.0,WNW,21.9,33.4,N/A,,Mostly Cloudy,290,2013-04-20 12:55:00
9:15 AM,32.0,24.8,75,30.02,10.0,WNW,16.1,25.3,N/A,,Mostly Cloudy,290,2013-04-20 13:15:00
9:35 AM,32.0,23.0,69,30.03,10.0,WNW,23.0,31.1,N/A,,Mostly Cloudy,290,2013-04-20 13:35:00
9:55 AM,33.8,24.8,70,30.05,10.0,WNW,23.0,27.6,N/A,,Scattered Clouds,290,2013-04-20 13:55:00
10:15 AM,33.8,23.0,65,30.05,10.0,WNW,20.7,34.5,N/A,,Scattered Clouds,290,2013-04-20 14:15:00
10:35 AM,35.6,23.0,60,30.06,10.0,West,17.3,32.2,N/A,,Clear,280,2013-04-20 14:35:00
10:55 AM,35.6,24.8,65,30.08,10.0,WNW,19.6,24.2,N/A,,Scattered Clouds,300,2013-04-20 14:55:00
11:15 AM,35.6,24.8,65,30.08,10.0,West,13.8,25.3,N/A,,Scattered Clouds,280,2013-04-20 15:15:00
11:35 AM,37.4,24.8,60,30.09,10.0,West,16.1,19.6,N/A,,Scattered Clouds,270,2013-04-20 15:35:00
11:55 AM,37.4,23.0,56,30.09,10.0,WNW,12.7,27.6,N/A,,Scattered Clouds,300,2013-04-20 15:55:00
12:15 PM,39.2,24.8,56,30.10,10.0,West,16.1,23.0,N/A,,Scattered Clouds,270,2013-04-20 16:15:00
12:35 PM,39.2,24.8,56,30.09,10.0,West,19.6,26.5,N/A,,Scattered Clouds,270,2013-04-20 16:35:00
12:55 PM,41.0,24.8,53,30.09,10.0,West,13.8,21.9,N/A,,Scattered Clouds,280,2013-04-20 16:55:00
1:15 PM,42.8,24.8,49,30.09,10.0,West,17.3,24.2,N/A,,Clear,270,2013-04-20 17:15:00
1:35 PM,42.8,23.0,46,30.09,10.0,West,19.6,26.5,N/A,,Clear,280,2013-04-20 17:35:00
1:55 PM,42.8,23.0,46,30.10,10.0,WNW,13.8,25.3,N/A,,Clear,300,2013-04-20 17:55:00
2:15 PM,44.6,24.8,46,30.10,10.0,WNW,12.7,20.7,N/A,,Clear,290,2013-04-20 18:15:00
2:35 PM,44.6,23.0,43,30.10,10.0,West,15.0,24.2,N/A,,Clear,280,2013-04-20 18:35:00
2:55 PM,44.6,21.2,39,30.11,10.0,West,13.8,21.9,N/A,,Clear,270,2013-04-20 18:55:00
3:15 PM,44.6,21.2,39,30.11,10.0,WNW,15.0,20.7,N/A,,Clear,290,2013-04-20 19:15:00
3:35 PM,44.6,21.2,39,30.12,10.0,West,17.3,21.9,N/A,,Clear,270,2013-04-20 19:35:00
3:55 PM,46.4,21.2,37,30.12,10.0,West,16.1,24.2,N/A,,Clear,280,2013-04-20 19:55:00
4:15 PM,46.4,21.2,37,30.12,10.0,West,15.0,19.6,N/A,,Clear,270,2013-04-20 20:15:00
4:35 PM,46.4,19.4,34,30.13,10.0,NW,13.8,23.0,N/A,,Clear,310,2013-04-20 20:35:00
4:55 PM,46.4,19.4,34,30.13,10.0,WNW,12.7,24.2,N/A,,Clear,300,2013-04-20 20:55:00
5:15 PM,46.4,19.4,34,30.14,10.0,NW,11.5,21.9,N/A,,Clear,310,2013-04-20 21:15:00
5:35 PM,46.4,19.4,34,30.15,10.0,WNW,16.1,23.0,N/A,,Clear,290,2013-04-20 21:35:00
5:55 PM,46.4,19.4,34,30.16,10.0,WNW,9.2,21.9,N/A,,Clear,300,2013-04-20 21:55:00
6:15 PM,44.6,19.4,37,30.17,10.0,WNW,12.7,19.6,N/A,,Clear,290,2013-04-20 22:15:00
6:35 PM,44.6,19.4,37,30.18,10.0,WNW,13.8,20.7,N/A,,Clear,290,2013-04-20 22:35:00
6:55 PM,44.6,19.4,37,30.18,10.0,West,9.2,18.4,N/A,,Clear,270,2013-04-20 22:55:00
7:15 PM,42.8,17.6,36,30.19,10.0,NW,13.8,21.9,N/A,,Clear,320,2013-04-20 23:15:00
7:35 PM,42.8,17.6,36,30.19,10.0,WNW,13.8,19.6,N/A,,Clear,300,2013-04-20 23:35:00
7:55 PM,41.0,19.4,42,30.20,10.0,WNW,11.5,17.3,N/A,,Clear,290,2013-04-20 23:55:00
8:15 PM,39.2,19.4,45,30.22,10.0,WNW,6.9,-,N/A,,Clear,290,2013-04-21 00:15:00
8:35 PM,39.2,19.4,45,30.24,10.0,NW,8.1,-,N/A,,Clear,320,2013-04-21 00:35:00
8:55 PM,39.2,19.4,45,30.25,10.0,NW,10.4,16.1,N/A,,Clear,310,2013-04-21 00:55:00
9:15 PM,39.2,19.4,45,30.27,10.0,NW,6.9,-,N/A,,Clear,310,2013-04-21 01:15:00
9:35 PM,39.2,19.4,45,30.28,10.0,NW,6.9,-,N/A,,Clear,320,2013-04-21 01:35:00
9:55 PM,37.4,19.4,48,30.28,10.0,North,4.6,-,N/A,,Clear,360,2013-04-21 01:55:00
10:15 PM,37.4,19.4,48,30.29,10.0,North,3.5,-,N/A,,Clear,360,2013-04-21 02:15:00
10:35 PM,37.4,19.4,48,30.30,10.0,North,4.6,-,N/A,,Clear,350,2013-04-21 02:35:00
10:55 PM,37.4,19.4,48,30.30,10.0,NNW,4.6,-,N/A,,Clear,340,2013-04-21 02:55:00
11:15 PM,35.6,19.4,52,30.30,10.0,North,4.6,-,N/A,,Clear,360,2013-04-21 03:15:00
11:35 PM,35.6,19.4,52,30.31,10.0,North,4.6,-,N/A,,Clear,360,2013-04-21 03:35:00
11:55 PM,35.6,19.4,52,30.31,10.0,North,4.6,-,N/A,,Clear,360,2013-04-21 03:55:00